Date String (YYYY-MM-DD hh:mm:ss) UTC,Instrument flags,Ambient pressure (hPa),Sample flow (lpm),Bypass flow (lpm),Sample temperature (°C),Ambient temperature (°C),ASC tube jacket temperature (°C),LED temperature (°C),Box temperature (°C),Sample RH (%),Span deviation,Mass concentration (μg/m³),Mass concentration (μg/m³),Mass concentration (μg/m³)
DateTimeUTC,F1_M11,P_M11,Q1_M11,Q2_M11,T1_M11,T2_M11,T3_M11,T4_M11,T5_M11,U1_M11,ZSPAN_M11,X2_M11,X0_M11,X1_M11
2021-12-20 14:00:00,,0826.5,5.00,0.00,23.2,22.4,00.0,32.2,25.0,06.4,0000.0,0000.49,0001.72,0000.39
2021-12-20 14:01:00,,0826.5,5.00,0.00,23.2,22.4,00.0,32.2,24.9,06.3,0000.0,0000.50,0001.81,0000.39
2021-12-20 14:02:00,,0826.5,5.00,0.00,23.2,22.4,00.0,32.2,24.9,06.3,0000.0,0000.49,0001.79,0000.38
2021-12-20 14:03:00,,0826.5,5.00,0.00,23.2,22.4,00.0,32.2,25.0,06.3,0000.0,0000.48,0001.77,0000.38
2021-12-20 14:04:00,,0826.5,5.00,0.00,23.2,22.4,00.0,32.2,24.9,06.3,0000.0,0000.47,0001.74,0000.37
2021-12-20 14:05:00,,0826.5,4.99,0.00,23.2,22.4,00.0,32.2,25.0,06.2,0000.0,0000.44,0001.71,0000.36
2021-12-20 14:06:00,,0826.5,5.01,0.00,23.2,22.4,00.0,32.2,24.9,06.2,0000.0,0000.42,0001.69,0000.35
2021-12-20 14:07:00,,0826.5,4.99,0.00,23.2,22.4,00.0,32.2,24.9,06.2,0000.0,0000.39,0001.61,0000.35
2021-12-20 14:08:00,,0826.5,5.02,0.00,23.2,22.4,00.0,32.2,25.0,06.3,0000.0,0000.39,0001.60,0000.35
2021-12-20 14:09:00,,0826.5,4.99,0.00,23.2,22.4,00.0,32.2,25.0,06.2,0000.0,0000.40,0000.87,0000.36
2021-12-20 14:10:00,,0826.5,5.01,0.00,23.2,22.4,00.0,32.2,25.0,06.2,0000.0,0000.40,0000.59,0000.36
2021-12-20 14:11:00,,0826.6,5.00,0.00,23.2,22.4,00.0,32.2,25.0,06.2,0000.0,0000.40,0000.58,0000.36
2021-12-20 14:12:00,,0826.6,5.01,0.00,23.2,22.4,00.0,32.2,25.0,06.3,0000.0,0000.38,0000.47,0000.36
2021-12-20 14:13:00,,0826.6,4.99,0.00,23.2,22.4,00.0,32.2,25.0,06.3,0000.0,0000.38,0000.46,0000.36
2021-12-20 14:14:00,,0826.5,5.01,0.00,23.2,22.4,00.0,32.2,25.0,06.7,0000.0,0000.38,0000.46,0000.36
2021-12-20 14:15:00,,0826.5,5.00,0.00,23.2,22.4,00.0,32.2,25.0,07.1,0000.0,0000.38,0000.44,0000.37
2021-12-20 14:16:00,,0826.5,4.99,0.00,23.2,22.4,00.0,32.2,25.0,07.1,0000.0,0000.38,0000.45,0000.36
2021-12-20 14:17:00,,0826.5,5.00,0.00,23.2,22.4,00.0,32.2,25.0,06.9,0000.0,0000.39,0000.45,0000.37
2021-12-20 14:18:00,,0826.6,4.99,0.00,23.2,22.4,00.0,32.2,25.0,06.8,0000.0,0000.39,0000.46,0000.37
2021-12-20 14:19:00,,0826.5,5.01,0.00,23.2,22.4,00.0,32.2,25.0,06.7,0000.0,0000.39,0000.48,0000.36
2021-12-20 14:20:00,,0826.5,4.98,0.00,23.2,22.4,00.0,32.2,25.0,06.8,0000.0,0000.40,0001.04,0000.35
2021-12-20 14:21:00,,0826.5,5.01,0.00,23.2,22.4,00.0,32.2,25.0,06.9,0000.0,0000.41,0001.40,0000.35
2021-12-20 14:22:00,,0826.5,4.99,0.00,23.2,22.4,00.0,32.2,25.0,06.9,0000.0,0000.41,0001.40,0000.34
2021-12-20 14:23:00,,0826.5,5.00,0.00,23.2,22.4,00.0,32.2,24.9,07.0,0000.0,0000.41,0001.40,0000.34
2021-12-20 14:24:00,,0826.5,4.99,0.00,23.2,22.4,00.0,32.2,25.0,07.1,0000.0,0000.41,0001.41,0000.34
2021-12-20 14:25:00,,0826.5,5.00,0.00,23.2,22.4,00.0,32.2,24.9,07.2,0000.0,0000.42,0001.43,0000.34
2021-12-20 14:26:00,,0826.6,4.99,0.00,23.2,22.4,00.0,32.2,24.9,07.2,0000.0,0000.43,0001.42,0000.34
2021-12-20 14:27:00,,0826.5,4.99,0.00,23.2,22.4,00.0,32.2,24.9,07.2,0000.0,0000.43,0001.42,0000.35
2021-12-20 14:28:00,,0826.5,5.00,0.00,23.2,22.3,00.0,32.2,24.9,07.2,0000.0,0000.44,0001.44,0000.36
2021-12-20 14:29:00,,0826.5,5.01,0.00,23.2,22.3,00.0,32.2,24.8,07.3,0000.0,0000.46,0001.49,0000.36
2021-12-20 14:30:00,,0826.5,4.99,0.00,23.2,22.3,00.0,32.2,24.8,07.3,0000.0,0000.47,0001.49,0000.36
2021-12-20 14:31:00,,0826.5,5.00,0.00,23.2,22.2,00.0,32.2,24.8,07.2,0000.0,0000.47,0001.17,0000.37
2021-12-20 14:32:00,,0826.5,5.01,0.00,23.2,22.2,00.0,32.2,24.8,07.2,0000.0,0000.47,0000.60,0000.38
2021-12-20 14:33:00,,0826.5,5.00,0.00,23.2,22.3,00.0,32.2,24.9,07.2,0000.0,0000.47,0000.63,0000.38
2021-12-20 14:34:00,,0826.5,4.99,0.00,23.2,22.3,00.0,32.2,24.9,07.3,0000.0,0000.47,0000.62,0000.38
2021-12-20 14:35:00,,0826.5,5.01,0.00,23.2,22.2,00.0,32.2,24.9,07.3,0000.0,0000.48,0000.66,0000.38
2021-12-20 14:36:00,,0826.5,4.99,0.00,23.2,22.2,00.0,32.2,24.9,07.3,0000.0,0000.47,0000.64,0000.38
2021-12-20 14:37:00,,0826.5,4.99,0.00,23.2,22.2,00.0,32.2,24.9,07.3,0000.0,0000.46,0000.63,0000.38
2021-12-20 14:38:00,,0826.5,5.01,0.00,23.2,22.2,00.0,32.2,24.9,07.3,0000.0,0000.46,0000.62,0000.38
2021-12-20 14:39:00,,0826.6,4.99,0.00,23.2,22.2,00.0,32.2,24.8,07.3,0000.0,0000.46,0000.62,0000.37
2021-12-20 14:40:00,,0826.6,5.00,0.00,23.2,22.2,00.0,32.2,24.8,07.3,0000.0,0000.43,0000.56,0000.37
2021-12-20 14:41:00,,0826.5,5.00,0.00,23.2,22.2,00.0,32.2,24.8,07.3,0000.0,0000.42,0000.53,0000.37
2021-12-20 14:42:00,,0826.6,5.00,0.00,23.2,22.2,00.0,32.2,24.8,07.3,0000.0,0000.40,0000.52,0000.36
2021-12-20 14:43:00,,0826.7,4.99,0.00,23.2,22.2,00.0,32.2,24.8,07.3,0000.0,0000.39,0000.50,0000.36
2021-12-20 14:44:00,,0826.7,5.01,0.00,23.2,22.2,00.0,32.2,24.8,07.3,0000.0,0000.38,0000.47,0000.35
2021-12-20 14:45:00,,0826.6,5.01,0.00,23.2,22.2,00.0,32.2,24.8,07.3,0000.0,0000.38,0000.52,0000.35
2021-12-20 14:46:00,,0826.6,4.99,0.00,23.1,22.2,00.0,32.2,24.8,07.3,0000.0,0000.37,0000.54,0000.35
2021-12-20 14:47:00,,0826.6,5.00,0.00,23.1,22.2,00.0,32.2,24.8,07.3,0000.0,0000.37,0000.93,0000.35
2021-12-20 14:48:00,,0826.6,5.01,0.00,23.1,22.2,00.0,32.2,24.8,07.3,0000.0,0000.37,0001.12,0000.35
2021-12-20 14:49:00,,0826.6,4.98,0.00,23.1,22.2,00.0,32.2,24.8,07.3,0000.0,0000.38,0001.16,0000.34
2021-12-20 14:50:00,,0826.6,5.00,0.00,23.2,22.2,00.0,32.2,24.8,07.3,0000.0,0000.38,0001.16,0000.34
2021-12-20 14:51:00,,0826.6,4.99,0.00,23.1,22.2,00.0,32.2,24.8,07.3,0000.0,0000.37,0001.14,0000.33
2021-12-20 14:52:00,,0826.7,5.00,0.00,23.1,22.2,00.0,32.2,24.8,07.3,0000.0,0000.38,0001.16,0000.33
2021-12-20 14:53:00,,0826.7,5.00,0.00,23.1,22.1,00.0,32.2,24.8,07.3,0000.0,0000.38,0001.15,0000.33
2021-12-20 14:54:00,,0826.7,5.01,0.00,23.2,22.2,00.0,32.2,24.8,07.3,0000.0,0000.39,0001.16,0000.33
2021-12-20 14:55:00,,0826.7,5.00,0.00,23.2,22.2,00.0,32.2,24.8,07.3,0000.0,0000.41,0001.20,0000.33
2021-12-20 14:56:00,,0826.7,5.01,0.00,23.2,22.2,00.0,32.2,24.8,07.3,0000.0,0000.41,0001.14,0000.33
2021-12-20 14:57:00,,0826.7,4.99,0.00,23.2,22.2,00.0,32.2,24.8,07.3,0000.0,0000.40,0001.08,0000.33
2021-12-20 14:58:00,,0826.7,5.01,0.00,23.2,22.1,00.0,32.2,24.8,07.3,0000.0,0000.42,0000.86,0000.34
2021-12-20 14:59:00,,0826.7,4.99,0.00,23.2,22.2,00.0,32.2,24.9,07.3,0000.0,0000.43,0000.85,0000.34
